• In United Kingdom
  • List of Countries
  • For 7 days
  • Water Temperature
  • Satellite Maps
  • Weather Map
  • Weather Widgets
  • user-avatar
    Login

    Hourly Weather Tbilisi

    Today, 20 July, Friday

    Time Temperature Precipitation Wind Pressure Humidity
    00:00 +21°C° 0 mm 3 mps 696 mmHg 64%
    01:00 +21°C° 0 mm 2 mps 696 mmHg 62%
    02:00 +20°C° 0 mm 2 mps 696 mmHg 61%
    03:00 +20°C° 0 mm 2 mps 696 mmHg 59%
    04:00 +20°C° 0 mm 2 mps 696 mmHg 56%
    05:00 +21°C° 0 mm 2 mps 696 mmHg 53%
    06:00 +23°C° 0 mm 2 mps 696 mmHg 49%
    07:00 +26°C° 0 mm 2 mps 696 mmHg 43%
    08:00 +28°C° 0 mm 2 mps 696 mmHg 37%
    09:00 +31°C° 0 mm 1 mps 696 mmHg 31%
    10:00 +33°C° 0 mm 1 mps 696 mmHg 28%
    11:00 +34°C° 0 mm 1 mps 696 mmHg 26%
    12:00 +36°C° 0 mm 1 mps 696 mmHg 24%
    13:00 +37°C° 0 mm 2 mps 696 mmHg 23%
    14:00 +38°C° 0 mm 2 mps 696 mmHg 22%
    15:00 +38°C° 0 mm 2 mps 696 mmHg 21%
    16:00 +37°C° 0 mm 2 mps 696 mmHg 24%
    17:00 +36°C° 0 mm 2 mps 696 mmHg 28%
    18:00 +35°C° 0 mm 3 mps 696 mmHg 31%
    19:00 +31°C° 0.1 mm 3 mps 696 mmHg 40%
    20:00 +28°C° 0.1 mm 3 mps 696 mmHg 49%
    21:00 +25°C° 0.1 mm 3 mps 697 mmHg 58%
    22:00 +24°C° 0.2 mm 3 mps 697 mmHg 63%
    23:00 +22°C° 0.2 mm 3 mps 697 mmHg 68%

    Tomorrow, 21 July, Saturday

    Time Temperature Precipitation Wind Pressure Humidity
    00:00 +21°C° 0.2 mm 3 mps 697 mmHg 72%
    01:00 +20°C° 0 mm 3 mps 697 mmHg 73%
    02:00 +20°C° 0 mm 2 mps 697 mmHg 73%
    03:00 +19°C° 0 mm 2 mps 697 mmHg 74%
    04:00 +20°C° 0.1 mm 2 mps 697 mmHg 72%
    05:00 +20°C° 0.1 mm 2 mps 697 mmHg 70%
    06:00 +21°C° 0.1 mm 2 mps 697 mmHg 68%
    07:00 +24°C° 0.1 mm 2 mps 697 mmHg 58%
    08:00 +27°C° 0.1 mm 2 mps 698 mmHg 49%
    09:00 +29°C° 0.1 mm 2 mps 698 mmHg 40%
    10:00 +31°C° 0 mm 2 mps 698 mmHg 36%
    11:00 +33°C° 0 mm 1 mps 698 mmHg 33%
    12:00 +35°C° 0 mm 1 mps 698 mmHg 29%
    13:00 +35°C° 0 mm 1 mps 698 mmHg 29%
    14:00 +36°C° 0 mm 2 mps 698 mmHg 28%
    15:00 +36°C° 0 mm 2 mps 698 mmHg 28%
    16:00 +35°C° 0 mm 2 mps 698 mmHg 32%
    17:00 +34°C° 0 mm 2 mps 698 mmHg 35%
    18:00 +32°C° 0 mm 2 mps 698 mmHg 39%
    19:00 +29°C° 0 mm 2 mps 698 mmHg 47%
    20:00 +27°C° 0 mm 2 mps 698 mmHg 56%
    21:00 +24°C° 0 mm 2 mps 699 mmHg 64%
    22:00 +23°C° 0.1 mm 2 mps 699 mmHg 67%
    23:00 +23°C° 0.1 mm 2 mps 699 mmHg 70%

    Day after tomorrow, 22 July, Sunday

    Time Temperature Precipitation Wind Pressure Humidity
    00:00 +21°C° 0.1 mm 2 mps 699 mmHg 73%
    01:00 +20°C° 0 mm 2 mps 699 mmHg 73%
    02:00 +20°C° 0 mm 2 mps 698 mmHg 73%
    03:00 +19°C° 0 mm 2 mps 698 mmHg 73%
    04:00 +20°C° 0 mm 2 mps 698 mmHg 70%
    05:00 +20°C° 0 mm 2 mps 698 mmHg 67%
    06:00 +22°C° 0 mm 1 mps 698 mmHg 64%
    07:00 +24°C° 0.1 mm 1 mps 699 mmHg 57%
    08:00 +27°C° 0.1 mm 1 mps 699 mmHg 50%
    09:00 +29°C° 0.1 mm 1 mps 699 mmHg 43%
    10:00 +30°C° 0 mm 1 mps 699 mmHg 40%
    11:00 +32°C° 0 mm 2 mps 698 mmHg 37%
    12:00 +34°C° 0 mm 2 mps 698 mmHg 34%
    13:00 +34°C° 0 mm 2 mps 698 mmHg 33%
    14:00 +35°C° 0 mm 3 mps 698 mmHg 32%
    15:00 +35°C° 0 mm 3 mps 697 mmHg 31%
    16:00 +34°C° 0 mm 3 mps 697 mmHg 33%
    17:00 +33°C° 0 mm 3 mps 697 mmHg 36%
    18:00 +32°C° 0 mm 2 mps 698 mmHg 38%
    19:00 +29°C° 0.1 mm 2 mps 698 mmHg 45%
    20:00 +27°C° 0.1 mm 2 mps 698 mmHg 52%
    21:00 +25°C° 0.1 mm 2 mps 698 mmHg 60%
    22:00 +24°C° 0.1 mm 2 mps 698 mmHg 62%
    23:00 +23°C° 0.1 mm 2 mps 698 mmHg 65%

    23 July, Monday

    Time Temperature Precipitation Wind Pressure Humidity
    00:00 +21°C° 0.1 mm 2 mps 698 mmHg 68%
    01:00 +21°C° 0.1 mm 2 mps 698 mmHg 69%
    02:00 +21°C° 0.1 mm 2 mps 697 mmHg 70%
    03:00 +20°C° 0.1 mm 2 mps 697 mmHg 72%
    04:00 +21°C° 0.2 mm 1 mps 697 mmHg 70%
    05:00 +22°C° 0.2 mm 1 mps 697 mmHg 69%
    06:00 +22°C° 0.2 mm 1 mps 697 mmHg 68%
    07:00 +24°C° 0.1 mm 1 mps 698 mmHg 61%
    08:00 +26°C° 0.1 mm 1 mps 698 mmHg 55%
    09:00 +29°C° 0.1 mm 1 mps 698 mmHg 48%
    10:00 +30°C° 0.1 mm 1 mps 698 mmHg 44%
    11:00 +31°C° 0.1 mm 1 mps 697 mmHg 40%
    12:00 +34°C° 0.1 mm 2 mps 697 mmHg 36%
    13:00 +34°C° 0 mm 2 mps 697 mmHg 35%
    14:00 +34°C° 0 mm 2 mps 697 mmHg 34%
    15:00 +34°C° 0 mm 2 mps 696 mmHg 34%
    16:00 +34°C° 0.1 mm 2 mps 696 mmHg 37%
    17:00 +32°C° 0.1 mm 2 mps 697 mmHg 40%
    18:00 +31°C° 0.1 mm 2 mps 697 mmHg 43%
    19:00 +29°C° 0.4 mm 2 mps 697 mmHg 50%
    20:00 +27°C° 0.4 mm 2 mps 697 mmHg 57%
    21:00 +24°C° 0.4 mm 2 mps 698 mmHg 64%
    22:00 +24°C° 0.4 mm 2 mps 698 mmHg 68%
    23:00 +23°C° 0.4 mm 2 mps 698 mmHg 71%

    24 July, Tuesday

    Time Temperature Precipitation Wind Pressure Humidity
    00:00 +22°C° 0.4 mm 1 mps 698 mmHg 75%
    01:00 +22°C° 0.2 mm 1 mps 697 mmHg 76%
    02:00 +20°C° 0.2 mm 2 mps 697 mmHg 77%
    03:00 +20°C° 0.2 mm 2 mps 697 mmHg 78%
    04:00 +20°C° 0.1 mm 2 mps 697 mmHg 76%
    05:00 +20°C° 0.1 mm 2 mps 698 mmHg 74%
    06:00 +22°C° 0.1 mm 1 mps 698 mmHg 71%
    07:00 +24°C° 0 mm 1 mps 698 mmHg 63%
    08:00 +27°C° 0 mm 1 mps 698 mmHg 54%
    09:00 +29°C° 0 mm 1 mps 698 mmHg 45%
    10:00 +31°C° 0 mm 1 mps 698 mmHg 41%
    11:00 +33°C° 0 mm 1 mps 698 mmHg 36%
    12:00 +35°C° 0 mm 1 mps 698 mmHg 32%
    13:00 +36°C° 0 mm 1 mps 698 mmHg 31%
    14:00 +36°C° 0 mm 1 mps 698 mmHg 29%
    15:00 +36°C° 0 mm 1 mps 698 mmHg 28%
    16:00 +36°C° 0 mm 1 mps 698 mmHg 30%
    17:00 +35°C° 0 mm 1 mps 698 mmHg 32%
    18:00 +35°C° 0 mm 2 mps 698 mmHg 34%
    19:00 +32°C° 0 mm 2 mps 698 mmHg 39%
    20:00 +29°C° 0 mm 2 mps 699 mmHg 44%
    21:00 +27°C° 0 mm 2 mps 699 mmHg 49%
    22:00 +26°C° 0.1 mm 2 mps 699 mmHg 52%
    23:00 +25°C° 0.1 mm 2 mps 699 mmHg 55%

    25 July, Wednesday

    Time Temperature Precipitation Wind Pressure Humidity
    00:00 +24°C° 0.1 mm 2 mps 699 mmHg 57%
    01:00 +23°C° 0 mm 2 mps 699 mmHg 58%
    02:00 +23°C° 0 mm 2 mps 699 mmHg 58%
    03:00 +23°C° 0 mm 1 mps 699 mmHg 58%
    04:00 +23°C° 0 mm 1 mps 699 mmHg 57%
    05:00 +23°C° 0 mm 1 mps 699 mmHg 56%
    06:00 +24°C° 0 mm 1 mps 700 mmHg 56%
    07:00 +27°C° 0 mm 1 mps 700 mmHg 48%
    08:00 +29°C° 0 mm 1 mps 700 mmHg 40%
    09:00 +32°C° 0 mm 1 mps 700 mmHg 32%
    10:00 +34°C° 0 mm 2 mps 699 mmHg 30%
    11:00 +35°C° 0 mm 2 mps 699 mmHg 28%
    12:00 +37°C° 0 mm 3 mps 699 mmHg 26%
    13:00 +37°C° 0 mm 3 mps 699 mmHg 25%
    14:00 +38°C° 0 mm 3 mps 699 mmHg 24%
    15:00 +39°C° 0 mm 3 mps 698 mmHg 23%
    16:00 +38°C° 0 mm 3 mps 698 mmHg 25%
    17:00 +37°C° 0 mm 3 mps 698 mmHg 26%
    18:00 +36°C° 0 mm 3 mps 698 mmHg 28%
    19:00 +34°C° 0 mm 3 mps 699 mmHg 31%
    20:00 +30°C° 0 mm 2 mps 699 mmHg 35%
    21:00 +27°C° 0 mm 2 mps 699 mmHg 38%
    22:00 +27°C° 0 mm 2 mps 699 mmHg 38%
    23:00 +26°C° 0 mm 2 mps 699 mmHg 38%
    Show more